STARLINK-36687, 67711

Orbit data source: Space-Track

STARLINK-36687, 67711 is a payload satellite owned by SpaceX/Seattle (US) in SSO that was launched on Sat, 07 Feb 2026 UTC via an FALCON 9 launch vehicle from the Air Force Western Test Range (AFWTR). Payload-class satellites include a variety of spacecraft equipped with specific instruments for various scientific and technological missions. These include communications satellites like Starlink; space stations such as the ISS; scientific satellites like the Hubble; Earth observation satellites from companies like Planet Labs, Umbra, and HawkEye 360; GPS; miniature CubeSats for education and research; and military/defense satellites.

Loading next visibility...
Identifier
67711, 2026-025U
Orbit
SSO
Country
Flag of USUS
Related business
Manufacturer
SpaceX/Seattle
Mission
Operational spacecraft
Bus & Motor
STARLINK V2MO, Unknown motor
Mass
575 kg wet, ~530 kg dry
Launch date (UTC)
2026-02-07 (2 months ago)
Launch vehicle
FALCON 9
Launch site
Air Force Western Test Range (AFWTR)
Object type
Payload
Rocket body
Debris
Shape & HBR
Unknown shape, 17.7 m
Radar Cross Section
RCS unknown

Expand to show TLE details & history
Last TLE update: 12 hours ago

TLE from 12 hours ago
0 STARLINK-36687
1 67711U 26025U   26104.03428464  .00014695  00000-0  45668-3 0  9998
2 67711  97.2864 216.2928 0001058  82.3276 277.8086 15.33440726 11445
Epoch: 2026-04-14T00:49Z
TLE epoch observation values (Epoch: 2026-04-14T00:49:22.192Z)
Latitude
-0.00014°
Longitude
1.73402°
Altitude
468.57 km
Speed
7.632 km/s
True Right ascension
14h 25m 10s
True Declination
0° 00' 00"
Sunlit
Object was in full shadow at epoch
Visualization orbit readout
Latitude
Unknown
Longitude
Unknown
Altitude
Unknown
Speed
Unknown
Apparent Right ascension
Unknown
Apparent Declination
Unknown
Sunlit
N/A
Visualization observer readout
Local Sidereal Time
19:14:31
Azimuth
Unknown
Elevation
Unknown
Doppler factor
Unknown
Orbital elements
Apogee altitude
463.222 km
Perigee altitude
461.775 km
Semi-major axis
6,840.636 km
Eccentricity
0.00011
Inclination
97.2864°
RAAN
216.2928°
Arg. of periapsis
82.3276°
True anomaly
277.79659°
Mean anomaly
277.8086°
Eccentric anomaly
277.80259°
Mean motion
3.83618 °/min
Orbital period
93.84 mins
BSTAR
0.00045668
Loading maneuver chart data...
Computing Atmospheric mass density...
Loading historical data...
Loading historical data...
Loading historical data...
Loading historical data...
Loading historical data...
Loading historical data...
Loading historical data...

Documentation

Showing up to 5 results
|